AUA1AB EDDM-LOWW

Flight info

Callsign AUA1AB
Flight time 0h 36m
Altitude 29000
Route KIRDI3S/26L KIRDI DCT BUWOQ DCT MASUR MASUR3W
Aircraft E195/M-SDE3GILORVW/S

Departure

Time 2026-05-05 18:23
Airport Munich Airport (EDDM)

Arrival

Time 2026-05-05 18:59
Airport Vienna International Airport (LOWW)
Time Latitude Longitude Altitude Speed Heading
2026-05-05 17:33 48.35512 11.80015 1466 ft 0 kts 264°
2026-05-05 18:07 48.35513 11.80028 1466 ft 2 kts 259°
2026-05-05 18:07 48.35516 11.80052 1464 ft 2 kts 255°
2026-05-05 18:07 48.35522 11.80076 1460 ft 2 kts 231°
2026-05-05 18:08 48.35535 11.80089 1460 ft 2 kts 182°
2026-05-05 18:08 48.35545 11.80089 1460 ft 1 kts 174°
2026-05-05 18:08 48.35546 11.80089 1460 ft 0 kts 173°
2026-05-05 18:10 48.35544 11.80089 1463 ft 1 kts 173°
2026-05-05 18:10 48.35529 11.80092 1460 ft 3 kts 173°
2026-05-05 18:10 48.35498 11.80097 1466 ft 6 kts 173°
2026-05-05 18:10 48.35454 11.80105 1462 ft 7 kts 173°
2026-05-05 18:11 48.35398 11.80122 1463 ft 9 kts 165°
2026-05-05 18:11 48.35328 11.80136 1466 ft 11 kts 173°
2026-05-05 18:11 48.35249 11.80150 1463 ft 12 kts 173°
2026-05-05 18:11 48.35173 11.80163 1466 ft 6 kts 174°
2026-05-05 18:12 48.35123 11.80167 1466 ft 8 kts 186°
2026-05-05 18:12 48.35091 11.80105 1466 ft 9 kts 259°
2026-05-05 18:12 48.35083 11.80002 1463 ft 11 kts 264°
2026-05-05 18:12 48.35074 11.79884 1466 ft 12 kts 263°
2026-05-05 18:13 48.35067 11.79791 1466 ft 9 kts 263°
2026-05-05 18:13 48.35060 11.79711 1462 ft 6 kts 261°
2026-05-05 18:13 48.35030 11.79670 1464 ft 7 kts 192°
2026-05-05 18:13 48.34980 11.79673 1462 ft 7 kts 173°
2026-05-05 18:14 48.34973 11.79674 1463 ft 1 kts 173°
2026-05-05 18:14 48.34961 11.79676 1464 ft 2 kts 173°
2026-05-05 18:14 48.34954 11.79678 1466 ft 0 kts 173°
2026-05-05 18:15 48.34952 11.79678 1466 ft 0 kts 173°
2026-05-05 18:15 48.34945 11.79679 1466 ft 2 kts 173°
2026-05-05 18:15 48.34926 11.79683 1461 ft 4 kts 173°
2026-05-05 18:15 48.34888 11.79690 1466 ft 8 kts 173°
2026-05-05 18:16 48.34828 11.79703 1463 ft 9 kts 162°
2026-05-05 18:16 48.34807 11.79786 1465 ft 9 kts 81°
2026-05-05 18:16 48.34818 11.79895 1466 ft 12 kts 83°
2026-05-05 18:16 48.34826 11.80022 1458 ft 13 kts 84°
2026-05-05 18:17 48.34820 11.80147 1464 ft 12 kts 117°
2026-05-05 18:17 48.34757 11.80236 1466 ft 12 kts 158°
2026-05-05 18:17 48.34686 11.80251 1463 ft 10 kts 173°
2026-05-05 18:17 48.34606 11.80265 1465 ft 12 kts 174°
2026-05-05 18:18 48.34575 11.80270 1461 ft 1 kts 174°
2026-05-05 18:18 48.34575 11.80271 1462 ft 0 kts 174°
2026-05-05 18:21 48.34574 11.80271 1462 ft 1 kts 174°
2026-05-05 18:21 48.34554 11.80274 1464 ft 6 kts 174°
2026-05-05 18:21 48.34503 11.80280 1461 ft 8 kts 179°
2026-05-05 18:21 48.34464 11.80239 1468 ft 7 kts 246°
2026-05-05 18:22 48.34459 11.80208 1465 ft 1 kts 258°
2026-05-05 18:22 48.34454 11.80152 1467 ft 14 kts 263°
2026-05-05 18:22 48.34414 11.79641 1466 ft 85 kts 264°
2026-05-05 18:22 48.34330 11.78417 1469 ft 148 kts 266°
2026-05-05 18:23 48.34201 11.76683 1849 ft 178 kts 263°
2026-05-05 18:23 48.34027 11.74843 2687 ft 178 kts 264°
2026-05-05 18:23 48.33847 11.73009 3468 ft 172 kts 262°
2026-05-05 18:23 48.33400 11.71287 4053 ft 183 kts 235°
2026-05-05 18:24 48.32371 11.70089 4622 ft 195 kts 205°
2026-05-05 18:24 48.31014 11.69821 5174 ft 207 kts 175°
2026-05-05 18:24 48.29627 11.70656 5672 ft 225 kts 150°
2026-05-05 18:24 48.28258 11.71915 6223 ft 239 kts 155°
2026-05-05 18:25 48.26711 11.73090 6629 ft 258 kts 154°
2026-05-05 18:25 48.26173 11.73532 6772 ft 265 kts 153°
2026-05-05 18:25 48.23465 11.76111 7752 ft 283 kts 148°
2026-05-05 18:25 48.21838 11.77779 8555 ft 284 kts 148°
2026-05-05 18:26 48.20225 11.79512 9364 ft 287 kts 141°
2026-05-05 18:26 48.19024 11.81893 9993 ft 301 kts 118°
2026-05-05 18:26 48.18598 11.85058 10305 ft 322 kts 92°
2026-05-05 18:26 48.18673 11.88457 10889 ft 330 kts 89°
2026-05-05 18:27 48.18759 11.91913 11575 ft 333 kts 90°
2026-05-05 18:27 48.18801 11.95396 12277 ft 336 kts 91°
2026-05-05 18:27 48.18835 11.98921 12977 ft 339 kts 91°
2026-05-05 18:27 48.18877 12.02475 13659 ft 343 kts 90°
2026-05-05 18:28 48.18957 12.08454 14716 ft 347 kts 90°
2026-05-05 18:28 48.19011 12.12095 15343 ft 350 kts 90°
2026-05-05 18:28 48.19071 12.15759 15965 ft 353 kts 90°
2026-05-05 18:29 48.19136 12.19463 16573 ft 356 kts 90°
2026-05-05 18:29 48.19206 12.23194 17167 ft 360 kts 90°
2026-05-05 18:29 48.19285 12.26967 17743 ft 363 kts 90°
2026-05-05 18:29 48.19368 12.30720 18284 ft 366 kts 90°
2026-05-05 18:30 48.19453 12.34551 18839 ft 369 kts 91°
2026-05-05 18:30 48.19538 12.38410 19445 ft 372 kts 91°
2026-05-05 18:30 48.19632 12.42305 20041 ft 375 kts 91°
2026-05-05 18:30 48.19731 12.46233 20621 ft 378 kts 91°
2026-05-05 18:31 48.19834 12.50189 21157 ft 382 kts 91°
2026-05-05 18:31 48.19946 12.54178 21695 ft 386 kts 91°
2026-05-05 18:31 48.20063 12.58212 22353 ft 389 kts 91°
2026-05-05 18:31 48.20181 12.62297 22998 ft 392 kts 91°
2026-05-05 18:32 48.20306 12.66405 23584 ft 397 kts 91°
2026-05-05 18:32 48.20438 12.70553 24125 ft 400 kts 91°
2026-05-05 18:32 48.20574 12.74692 24654 ft 404 kts 91°
2026-05-05 18:32 48.20717 12.78914 25201 ft 407 kts 90°
2026-05-05 18:33 48.20866 12.83183 25732 ft 411 kts 91°
2026-05-05 18:33 48.20952 12.87487 26244 ft 414 kts 92°
2026-05-05 18:33 48.20997 12.91815 26747 ft 417 kts 92°
2026-05-05 18:33 48.21047 12.96192 27228 ft 421 kts 92°
2026-05-05 18:34 48.21101 13.00593 27697 ft 424 kts 92°
2026-05-05 18:34 48.21159 13.05038 28103 ft 428 kts 92°
2026-05-05 18:34 48.21216 13.09450 28379 ft 429 kts 92°
2026-05-05 18:34 48.21274 13.13941 28600 ft 431 kts 92°
2026-05-05 18:35 48.21330 13.18442 28813 ft 433 kts 92°
2026-05-05 18:35 48.21383 13.23013 28816 ft 444 kts 92°
2026-05-05 18:35 48.21490 13.32475 28839 ft 462 kts 92°
2026-05-05 18:36 48.21594 13.42260 28782 ft 472 kts 92°
2026-05-05 18:36 48.21692 13.52072 28774 ft 474 kts 92°
2026-05-05 18:37 48.21780 13.61956 28768 ft 474 kts 92°
2026-05-05 18:37 48.21860 13.71843 28758 ft 474 kts 92°
2026-05-05 18:38 48.21931 13.81733 28755 ft 473 kts 92°
2026-05-05 18:38 48.21993 13.91594 28768 ft 473 kts 92°
2026-05-05 18:39 48.22547 14.01413 28803 ft 477 kts 77°
2026-05-05 18:39 48.24577 14.10857 28768 ft 477 kts 73°
2026-05-05 18:40 48.26635 14.20354 28767 ft 477 kts 74°
2026-05-05 18:40 48.28645 14.29826 28774 ft 476 kts 74°
2026-05-05 18:41 48.30630 14.39243 28767 ft 475 kts 75°
2026-05-05 18:41 48.32618 14.48720 28613 ft 473 kts 74°
2026-05-05 18:42 48.33591 14.53357 28267 ft 457 kts 75°
2026-05-05 18:42 48.34531 14.57847 27922 ft 442 kts 75°
2026-05-05 18:42 48.35437 14.62184 27524 ft 429 kts 75°
2026-05-05 18:42 48.36318 14.66416 27092 ft 419 kts 75°
2026-05-05 18:43 48.37179 14.70565 26634 ft 411 kts 75°
2026-05-05 18:43 48.38022 14.74637 26194 ft 407 kts 75°
2026-05-05 18:43 48.38851 14.78655 25775 ft 407 kts 75°
2026-05-05 18:43 48.39692 14.82738 25362 ft 407 kts 75°
2026-05-05 18:44 48.40516 14.86809 24954 ft 406 kts 77°
2026-05-05 18:44 48.40767 14.90994 24396 ft 401 kts 98°
2026-05-05 18:44 48.40181 14.95049 23863 ft 394 kts 109°
2026-05-05 18:44 48.39429 14.99000 23317 ft 392 kts 108°
2026-05-05 18:45 48.38770 15.02959 22673 ft 389 kts 105°
2026-05-05 18:45 48.38190 15.06920 22036 ft 385 kts 104°
2026-05-05 18:45 48.37646 15.10855 21419 ft 382 kts 104°
2026-05-05 18:45 48.37126 15.14696 20823 ft 378 kts 104°
2026-05-05 18:46 48.36605 15.18555 20236 ft 375 kts 104°
2026-05-05 18:46 48.36089 15.22389 19662 ft 372 kts 104°
2026-05-05 18:46 48.35579 15.26190 19109 ft 368 kts 104°
2026-05-05 18:46 48.35075 15.29951 18567 ft 366 kts 104°
2026-05-05 18:47 48.34574 15.33690 18037 ft 363 kts 104°
2026-05-05 18:47 48.34081 15.37358 17447 ft 360 kts 103°
2026-05-05 18:47 48.33590 15.41033 16866 ft 357 kts 103°
2026-05-05 18:47 48.33100 15.44681 16295 ft 354 kts 103°
2026-05-05 18:48 48.32614 15.48299 15742 ft 351 kts 103°
2026-05-05 18:48 48.32136 15.51887 15206 ft 348 kts 103°
2026-05-05 18:48 48.31663 15.55436 14681 ft 345 kts 103°
2026-05-05 18:48 48.31192 15.58955 14168 ft 342 kts 103°
2026-05-05 18:49 48.30731 15.62409 13678 ft 340 kts 103°
2026-05-05 18:49 48.30263 15.65920 13136 ft 337 kts 103°
2026-05-05 18:49 48.29810 15.69304 12594 ft 333 kts 103°
2026-05-05 18:49 48.29358 15.72687 12063 ft 326 kts 103°
2026-05-05 18:50 48.28915 15.75996 11554 ft 320 kts 103°
2026-05-05 18:50 48.28486 15.79234 11056 ft 313 kts 103°
2026-05-05 18:50 48.28061 15.82417 10609 ft 309 kts 103°
2026-05-05 18:50 48.27638 15.85571 10181 ft 307 kts 103°
2026-05-05 18:51 48.27218 15.88711 9761 ft 305 kts 102°
2026-05-05 18:51 48.26807 15.91807 9318 ft 299 kts 102°
2026-05-05 18:51 48.26404 15.94837 8861 ft 292 kts 102°
2026-05-05 18:51 48.26011 15.97777 8432 ft 290 kts 102°
2026-05-05 18:52 48.25616 16.00753 8010 ft 289 kts 102°
2026-05-05 18:52 48.25223 16.03702 7602 ft 288 kts 102°
2026-05-05 18:52 48.24832 16.06643 7201 ft 285 kts 102°
2026-05-05 18:52 48.24453 16.09504 6788 ft 275 kts 102°
2026-05-05 18:53 48.24080 16.12269 6405 ft 266 kts 102°
2026-05-05 18:53 48.23720 16.14914 6036 ft 257 kts 102°
2026-05-05 18:53 48.23371 16.17507 5655 ft 250 kts 102°
2026-05-05 18:53 48.22966 16.20010 5280 ft 243 kts 111°
2026-05-05 18:54 48.22274 16.22286 4968 ft 237 kts 120°
2026-05-05 18:54 48.21546 16.24453 4879 ft 235 kts 117°
2026-05-05 18:54 48.20881 16.26703 4540 ft 233 kts 117°
2026-05-05 18:54 48.20188 16.28841 4219 ft 221 kts 120°
2026-05-05 18:55 48.19526 16.30848 3927 ft 209 kts 121°
2026-05-05 18:55 48.18919 16.32777 3640 ft 200 kts 121°
2026-05-05 18:55 48.18328 16.34613 3376 ft 190 kts 122°
2026-05-05 18:55 48.17757 16.36366 3133 ft 184 kts 123°
2026-05-05 18:56 48.17216 16.38056 2894 ft 175 kts 122°
2026-05-05 18:56 48.16713 16.39624 2648 ft 163 kts 124°
2026-05-05 18:56 48.16242 16.41079 2445 ft 148 kts 126°
2026-05-05 18:56 48.15807 16.42418 2232 ft 137 kts 127°
2026-05-05 18:57 48.15400 16.43683 2051 ft 134 kts 124°
2026-05-05 18:57 48.14996 16.44932 1924 ft 132 kts 124°
2026-05-05 18:57 48.14603 16.46156 1711 ft 126 kts 124°
2026-05-05 18:57 48.14229 16.47311 1506 ft 121 kts 123°
2026-05-05 18:58 48.13867 16.48455 1359 ft 123 kts 123°
2026-05-05 18:58 48.13496 16.49632 1272 ft 129 kts 121°
2026-05-05 18:58 48.13101 16.50848 1038 ft 131 kts 122°
2026-05-05 18:58 48.12715 16.52045 842 ft 125 kts 123°
2026-05-05 18:59 48.12330 16.53216 676 ft 125 kts 122°
2026-05-05 18:59 48.11955 16.54342 613 ft 109 kts 115°
2026-05-05 18:59 48.11694 16.55145 613 ft 63 kts 117°
2026-05-05 18:59 48.11546 16.55602 616 ft 30 kts 115°
2026-05-05 19:00 48.11503 16.55838 608 ft 22 kts 96°
2026-05-05 19:00 48.11508 16.56061 608 ft 19 kts 86°
2026-05-05 19:00 48.11544 16.56141 617 ft 0 kts 25°
2026-05-05 19:01 48.11553 16.56148 616 ft 3 kts 25°
2026-05-05 19:01 48.11578 16.56166 617 ft 5 kts 25°
2026-05-05 19:01 48.11616 16.56195 616 ft 7 kts 30°
2026-05-05 19:02 48.11664 16.56242 617 ft 9 kts 36°
2026-05-05 19:02 48.11725 16.56294 615 ft 11 kts 24°
2026-05-05 19:02 48.11760 16.56341 612 ft 6 kts 79°
2026-05-05 19:02 48.11746 16.56410 615 ft 8 kts 112°
2026-05-05 19:03 48.11722 16.56488 608 ft 9 kts 115°
2026-05-05 19:03 48.11692 16.56581 613 ft 11 kts 116°
2026-05-05 19:03 48.11657 16.56682 615 ft 11 kts 117°
2026-05-05 19:03 48.11634 16.56753 610 ft 4 kts 116°
2026-05-05 19:04 48.11625 16.56782 621 ft 2 kts 104°
2026-05-05 19:04 48.11633 16.56803 608 ft 3 kts 56°
2026-05-05 19:04 48.11653 16.56818 612 ft 4 kts 23°
2026-05-05 19:04 48.11685 16.56841 619 ft 5 kts 26°
2026-05-05 19:05 48.11695 16.56848 613 ft 0 kts 26°